CW7395 Weather Reports


time (UTC)temp
F
wind
direction
speed
knots
gust
knots
rain 1hr
in
rain 24hr
in
rain mn
in
humidity
%
barometer
mb
20260505172013 58 0 0.0 0.0 0.00 0.00 0.00 75 1016.5
20260505171529 58 0 0.0 1.7 0.00 0.00 0.00 75 1016.4
20260505171014 58 0 0.0 1.7 0.00 0.00 0.00 77 1016.4
20260505170512 58 0 0.0 1.7 0.00 0.00 0.00 76 1016.3
20260505170029 57 0 0.0 2.6 0.00 0.00 0.00 78 1016.4
20260505165515 57 0 0.0 2.6 0.00 0.00 0.00 76 1016.3
20260505165014 57 55 0.0 2.6 0.00 0.00 0.00 76 1016.4
20260505164530 57 0 0.0 2.6 0.00 0.00 0.00 77 1016.3
20260505164014 57 0 0.0 2.6 0.00 0.00 0.00 80 1016.3
20260505163514 56 0 0.0 0.0 0.00 0.00 0.00 80 1016.2
20260505163032 56 0 0.0 0.0 0.00 0.00 0.00 80 1016.2
20260505162513 56 0 0.0 0.0 0.00 0.00 0.00 80 1016.2
20260505162013 55 0 0.0 0.0 0.00 0.00 0.00 81 1016.3
20260505161532 55 0 0.0 0.0 0.00 0.00 0.00 81 1016.3
20260505161015 55 0 0.0 0.0 0.00 0.00 0.00 81 1016.3
20260505160516 54 0 0.0 0.0 0.00 0.00 0.00 82 1016.2
20260505153035 52 0 0.0 0.0 0.00 0.00 0.00 87 1016.3
20260505152512 52 0 0.0 0.0 0.00 0.00 0.00 87 1016.3
20260505152016 52 0 0.0 0.0 0.00 0.00 0.00 87 1016.2
20260505151531 52 0 0.0 0.0 0.00 0.00 0.00 86 1016.1
20260505151013 52 0 0.0 0.0 0.00 0.00 0.00 87 1016.0
20260505150516 52 0 0.0 0.0 0.00 0.00 0.00 87 1016.0
20260505140513 51 0 0.0 0.0 0.00 0.00 0.00 88 1015.6
20260505125018 50 0 0.0 0.0 0.00 0.00 0.00 88 1015.3
20260505124537 50 0 0.0 0.0 0.00 0.00 0.00 88 1015.4
20260505124015 50 0 0.0 0.0 0.00 0.00 0.00 88 1015.3
20260505123519 50 0 0.0 0.0 0.00 0.00 0.00 88 1015.3
20260505123036 50 0 0.0 0.0 0.00 0.00 0.00 88 1015.3
20260505122514 50 0 0.0 0.0 0.00 0.00 0.00 88 1015.4
20260505122015 50 0 0.0 0.0 0.00 0.00 0.00 88 1015.4
20260505121537 50 0 0.0 0.0 0.00 0.00 0.00 88 1015.4
20260505121013 51 0 0.0 0.0 0.00 0.00 0.00 88 1015.4
20260505120513 50 0 0.0 0.0 0.00 0.00 0.00 88 1015.4
20260505120043 51 0 0.0 0.0 0.00 0.00 0.00 88 1015.5
20260505115516 51 0 0.0 0.0 0.00 0.00 0.00 88 1015.6
20260505115013 51 0 0.0 0.0 0.00 0.00 0.00 88 1015.5
20260505114532 51 0 0.0 0.0 0.00 0.00 0.00 88 1015.5
20260505114013 51 0 0.0 0.0 0.00 0.00 0.00 87 1015.4
20260505113513 51 0 0.0 0.0 0.00 0.00 0.00 87 1015.4
20260505113031 51 0 0.0 0.0 0.00 0.00 0.00 87 1015.4
20260505112514 51 0 0.0 0.0 0.00 0.00 0.00 87 1015.5
20260505112014 51 0 0.0 0.0 0.00 0.00 0.00 86 1015.4
20260505111530 51 0 0.0 0.0 0.00 0.00 0.00 87 1015.3
20260505111013 51 0 0.0 0.0 0.00 0.00 0.00 86 1015.3
20260505110514 51 0 0.0 0.0 0.00 0.00 0.00 87 1015.3
20260505102014 51 0 0.0 0.0 0.00 0.00 0.00 87 1015.3
20260505101543 51 0 0.0 0.0 0.00 0.00 0.00 87 1015.5
20260505101017 51 0 0.0 0.0 0.00 0.00 0.00 87 1015.4
20260505100514 51 0 0.0 0.0 0.00 0.00 0.00 87 1015.4
20260505100030 51 0 0.0 0.0 0.00 0.00 0.00 87 1015.5
20260505095514 51 0 0.0 0.0 0.00 0.00 0.00 87 1015.4
20260505095012 51 0 0.0 0.0 0.00 0.00 0.00 86 1015.6
20260505094537 51 0 0.0 0.0 0.00 0.00 0.00 86 1015.6
20260505094014 51 0 0.0 0.0 0.00 0.00 0.00 86 1015.5
20260505093515 51 0 0.0 0.0 0.00 0.00 0.00 86 1015.5
20260505093031 51 0 0.0 0.0 0.00 0.00 0.00 86 1015.6
20260505092515 51 0 0.0 0.0 0.00 0.00 0.00 86 1015.6
20260505092014 51 0 0.0 0.0 0.00 0.00 0.00 86 1015.6
20260505091535 51 0 0.0 0.0 0.00 0.00 0.00 86 1015.8
20260505091013 51 0 0.0 0.0 0.00 0.00 0.00 86 1016.0
20260505090514 51 0 0.0 0.0 0.00 0.00 0.00 86 1015.9
20260505090031 51 0 0.0 0.0 0.00 0.00 0.00 86 1015.8
20260505085514 51 0 0.0 0.0 0.00 0.00 0.00 86 1016.0
20260505085014 51 0 0.0 0.0 0.00 0.00 0.00 86 1016.0
20260505084530 51 0 0.0 0.0 0.00 0.00 0.00 86 1016.0
20260505084013 51 0 0.0 0.0 0.00 0.00 0.00 86 1016.0
20260505083512 51 0 0.0 0.0 0.00 0.00 0.00 87 1015.9
20260505083032 51 0 0.0 0.0 0.00 0.00 0.00 87 1016.0
20260505082518 51 0 0.0 0.0 0.00 0.00 0.00 87 1016.1
20260505082017 51 0 0.0 0.0 0.00 0.00 0.00 87 1016.1
20260505081532 51 0 0.0 0.0 0.00 0.00 0.00 87 1016.1
20260505081019 51 0 0.0 0.0 0.00 0.00 0.00 87 1016.3
20260505080514 51 0 0.0 0.0 0.00 0.00 0.00 87 1016.2
20260505080032 51 0 0.0 0.0 0.00 0.00 0.00 86 1016.2
20260505075514 51 0 0.0 0.0 0.00 0.00 0.00 86 1016.2
20260505075019 51 0 0.0 0.0 0.00 0.00 0.00 86 1016.3
20260505074531 51 0 0.0 0.0 0.00 0.00 0.00 86 1016.2
20260505074014 51 0 0.0 0.0 0.00 0.00 0.00 86 1016.1
20260505073518 51 0 0.0 0.0 0.00 0.00 0.00 86 1016.2
20260505073030 51 0 0.0 0.0 0.00 0.00 0.00 86 1016.1
20260505072514 51 0 0.0 0.0 0.00 0.00 0.00 86 1016.0
20260505072013 51 0 0.0 0.0 0.00 0.00 0.00 86 1016.0
20260505071534 51 0 0.0 0.0 0.00 0.00 0.00 86 1015.9
20260505071013 51 0 0.0 0.0 0.00 0.00 0.00 85 1015.9
20260505070519 51 0 0.0 0.0 0.00 0.00 0.00 85 1015.9
20260505070029 51 0 0.0 0.0 0.00 0.00 0.00 85 1016.0
20260505065512 51 0 0.0 0.0 0.00 0.00 0.00 85 1016.1
20260505065013 51 0 0.0 0.0 0.00 0.00 0.00 84 1016.0
20260505064530 51 0 0.0 0.0 0.00 0.00 0.00 84 1015.9
20260505064013 51 0 0.0 0.0 0.00 0.00 0.00 84 1015.9
20260505063513 52 0 0.0 0.0 0.00 0.00 0.00 83 1015.9
20260505063031 52 0 0.0 0.0 0.00 0.00 0.00 83 1015.7
20260505062514 52 0 0.0 0.0 0.00 0.00 0.00 83 1015.7
20260505062012 52 0 0.0 0.0 0.00 0.00 0.00 82 1015.7
20260505061534 52 0 0.0 0.0 0.00 0.00 0.00 82 1015.6
20260505061018 53 0 0.0 0.0 0.00 0.00 0.00 82 1015.7
20260505060513 53 0 0.0 0.0 0.00 0.00 0.00 82 1015.7
20260505060044 53 0 0.0 0.0 0.00 0.00 0.00 81 1015.8
20260505055518 53 0 0.0 0.0 0.00 0.00 0.00 81 1015.8
20260505055016 53 0 0.0 0.0 0.00 0.00 0.00 81 1015.8
20260505054534 53 0 0.0 0.0 0.00 0.00 0.00 81 1015.8
20260505054013 53 0 0.0 0.0 0.00 0.00 0.00 81 1016.0
20260505053517 53 0 0.0 0.0 0.00 0.00 0.00 82 1016.1
20260505053032 53 0 0.0 0.0 0.00 0.00 0.00 81 1016.2
20260505052513 53 0 0.0 0.0 0.00 0.00 0.00 81 1016.2
20260505052013 53 0 0.0 0.0 0.00 0.00 0.00 81 1016.2
20260505051529 53 0 0.0 0.0 0.00 0.00 0.00 81 1016.1
20260505051012 53 0 0.0 0.0 0.00 0.00 0.00 81 1016.2
20260505050513 53 0 0.0 0.0 0.00 0.00 0.00 81 1016.2
20260505041531 54 0 0.0 0.0 0.00 0.00 0.00 79 1015.8
20260505041015 54 0 0.0 0.0 0.00 0.00 0.00 79 1015.9
20260505040513 54 0 0.0 0.0 0.00 0.00 0.00 79 1015.7
20260505040030 54 0 0.0 0.0 0.00 0.00 0.00 78 1015.6
20260505035514 55 0 0.0 0.0 0.00 0.00 0.00 77 1015.6
20260505035015 55 0 0.0 0.0 0.00 0.00 0.00 77 1015.4
20260505034532 55 0 0.0 0.0 0.00 0.00 0.00 77 1015.3
20260505034013 55 0 0.0 0.0 0.00 0.00 0.00 76 1015.3
20260505033513 56 0 0.0 0.0 0.00 0.00 0.00 76 1015.3
20260505033032 56 0 0.0 0.0 0.00 0.00 0.00 76 1015.2
20260505032515 56 0 0.0 0.0 0.00 0.00 0.00 75 1015.1
20260505032014 56 0 0.0 0.0 0.00 0.00 0.00 75 1015.2
20260505031532 56 0 0.0 0.0 0.00 0.00 0.00 75 1015.3
20260505031012 57 0 0.0 0.0 0.00 0.00 0.00 75 1015.3
20260505030515 57 0 0.0 0.0 0.00 0.00 0.00 74 1015.3
20260505030032 57 0 0.0 0.0 0.00 0.00 0.00 73 1015.3
20260505025518 57 0 0.0 0.0 0.00 0.00 0.00 73 1015.2
20260505025012 58 0 0.0 0.0 0.00 0.00 0.00 72 1015.1
20260505024531 58 0 0.0 0.0 0.00 0.00 0.00 72 1015.0
20260505024014 58 0 0.0 0.0 0.00 0.00 0.00 72 1015.2
20260505023512 58 0 0.0 0.0 0.00 0.00 0.00 71 1015.2
20260505023029 58 0 0.0 0.0 0.00 0.00 0.00 70 1015.1
20260505022515 59 0 0.0 0.0 0.00 0.00 0.00 70 1015.1
20260505022017 59 0 0.0 0.0 0.00 0.00 0.00 66 1015.1
20260505021532 59 0 0.0 0.9 0.00 0.00 0.00 67 1014.9
20260505021013 59 0 0.0 0.9 0.00 0.00 0.00 66 1015.0
20260505020513 60 281 0.0 0.0 0.00 0.00 0.00 65 1015.0
20260505020032 60 0 0.0 0.0 0.00 0.00 0.00 65 1014.9
20260505015513 60 0 0.0 4.3 0.00 0.00 0.00 66 1014.9
20260505015013 60 0 0.0 4.3 0.00 0.00 0.00 64 1014.9
20260505014530 61 0 0.0 4.3 0.00 0.00 0.00 64 1014.9
20260505014019 61 0 0.0 4.3 0.00 0.00 0.00 65 1015.0
20260505013514 61 0 0.0 6.1 0.00 0.00 0.00 64 1015.0
20260505013041 61 0 0.0 6.1 0.00 0.00 0.00 63 1015.0
20260505012512 61 0 0.0 6.1 0.00 0.00 0.00 62 1015.0
20260505012013 62 0 0.0 2.6 0.00 0.00 0.00 63 1015.0
20260505011530 62 0 0.0 3.5 0.00 0.00 0.00 63 1015.1
20260505011014 62 0 0.0 3.5 0.00 0.00 0.00 63 1015.1
20260505010517 61 0 0.0 4.3 0.00 0.00 0.00 63 1015.1
20260505010033 61 0 0.0 7.8 0.00 0.00 0.00 64 1015.2
20260505005514 61 0 0.9 7.8 0.00 0.00 0.00 63 1015.2
20260505005014 62 0 2.6 7.8 0.00 0.00 0.00 61 1015.2
20260505004532 62 0 0.9 7.0 0.00 0.00 0.00 62 1015.2
20260505004014 62 0 0.0 3.5 0.00 0.00 0.00 62 1015.2
20260505003516 62 0 0.0 3.5 0.00 0.00 0.00 64 1015.2
20260505003033 62 0 0.0 4.3 0.00 0.00 0.00 63 1015.2
20260505002515 62 0 0.0 4.3 0.00 0.00 0.00 62 1015.2
20260505002015 62 41 0.0 3.5 0.00 0.00 0.00 64 1015.1
20260505001530 62 0 0.0 5.2 0.00 0.00 0.00 65 1015.2
20260505001013 62 0 0.9 5.2 0.00 0.00 0.00 65 1015.2
20260505000514 61 36 0.0 2.6 0.00 0.00 0.00 66 1015.1
20260505000040 61 0 0.0 2.6 0.00 0.00 0.00 67 1015.0
20260504235514 61 0 0.0 2.6 0.00 0.00 0.00 68 1015.1
20260504235012 61 0 0.0 3.5 0.00 0.00 0.00 67 1015.1
20260504234535 61 0 0.0 4.3 0.00 0.00 0.00 68 1015.2
20260504234014 61 0 0.0 4.3 0.00 0.00 0.00 67 1015.1
20260504233514 61 0 0.0 4.3 0.00 0.00 0.00 66 1015.1
20260504233036 61 0 0.0 4.3 0.00 0.00 0.00 66 1015.1
20260504232515 62 53 0.0 4.3 0.00 0.00 0.00 65 1015.1
20260504232015 62 0 0.0 3.5 0.00 0.00 0.00 64 1015.1
20260504231532 62 0 0.0 6.1 0.00 0.00 0.00 65 1015.3
20260504231012 62 0 0.0 6.1 0.00 0.00 0.00 64 1015.2
20260504230513 62 0 0.0 6.1 0.00 0.00 0.00 63 1015.3
20260504230030 62 0 0.0 7.8 0.00 0.00 0.00 63 1015.3
20260504225514 63 0 0.9 7.8 0.00 0.00 0.00 61 1015.2
20260504225017 63 306 0.9 7.0 0.00 0.00 0.00 60 1015.2
20260504224530 63 0 0.0 4.3 0.00 0.00 0.00 60 1015.1
20260504224012 63 0 0.0 2.6 0.00 0.00 0.00 63 1015.2
20260504223514 63 117 0.0 4.3 0.00 0.00 0.00 60 1015.2
20260504223029 63 0 0.9 4.3 0.00 0.00 0.00 62 1015.3
20260504222512 63 0 0.0 3.5 0.00 0.00 0.00 60 1015.4
20260504222016 63 0 0.0 2.6 0.00 0.00 0.00 60 1015.4
20260504221532 63 0 0.0 2.6 0.00 0.00 0.00 59 1015.6
20260504221014 64 0 0.0 0.9 0.00 0.00 0.00 59 1015.8
20260504220514 64 0 0.0 1.7 0.00 0.00 0.00 58 1015.7
20260504220040 65 0 0.0 5.2 0.00 0.00 0.00 59 1015.7
20260504215514 65 0 0.0 5.2 0.00 0.00 0.00 58 1015.9
20260504215014 66 0 0.0 5.2 0.00 0.00 0.00 58 1015.8
20260504214536 65 0 0.0 5.2 0.00 0.00 0.00 61 1015.8
20260504214017 64 0 0.0 5.2 0.00 0.00 0.00 63 1015.8
20260504213513 63 0 0.0 2.6 0.00 0.00 0.00 65 1015.8
20260504213035 63 0 0.0 2.6 0.00 0.00 0.00 63 1015.9
20260504212514 62 0 0.0 2.6 0.00 0.00 0.00 65 1015.9
20260504212017 62 0 0.0 2.6 0.00 0.00 0.00 65 1016.0
20260504211535 61 0 0.0 3.5 0.00 0.00 0.00 65 1016.1
20260504211013 62 0 0.0 3.5 0.00 0.00 0.00 66 1016.1
20260504210514 62 0 0.0 0.9 0.00 0.00 0.00 67 1016.1
20260504210033 61 0 0.0 0.9 0.00 0.00 0.00 66 1016.1
20260504205514 61 0 0.0 0.0 0.00 0.00 0.00 65 1016.0
20260504205013 60 0 0.0 0.0 0.00 0.00 0.00 67 1016.1
20260504204531 60 0 0.0 3.5 0.00 0.00 0.00 67 1016.2
20260504204014 60 0 0.0 3.5 0.00 0.00 0.00 67 1016.0
20260504203518 60 0 0.0 0.0 0.00 0.00 0.00 67 1016.0
20260504203035 60 0 0.0 0.0 0.00 0.00 0.00 67 1016.1
20260504202513 60 0 0.0 3.5 0.00 0.00 0.00 67 1016.1
20260504202015 59 0 0.0 3.5 0.00 0.00 0.00 67 1016.1
20260504201532 59 0 0.0 0.9 0.00 0.00 0.00 67 1016.1
20260504201016 59 0 0.0 0.9 0.00 0.00 0.00 68 1016.2
20260504200512 59 0 0.0 1.7 0.00 0.00 0.00 68 1016.2
20260504200030 59 0 0.0 1.7 0.00 0.00 0.00 69 1016.1
20260504195512 59 72 0.0 1.7 0.00 0.00 0.00 69 1016.2
20260504195012 59 109 0.0 1.7 0.00 0.00 0.00 69 1016.2
20260504194532 59 0 0.0 0.9 0.00 0.00 0.00 70 1016.2
20260504194015 59 0 0.0 2.6 0.00 0.00 0.00 67 1016.2
20260504193511 59 0 0.0 7.0 0.00 0.00 0.00 68 1016.2
20260504193031 60 0 0.0 7.0 0.00 0.00 0.00 68 1016.1
20260504192515 60 0 1.7 7.0 0.00 0.00 0.00 66 1016.1
20260504192014 61 0 0.0 4.3 0.00 0.00 0.00 67 1016.0
20260504191530 61 0 0.0 4.3 0.00 0.00 0.00 65 1016.0
20260504191015 61 0 0.0 0.9 0.00 0.00 0.00 65 1016.0
20260504190513 61 0 0.0 0.0 0.00 0.00 0.00 67 1016.1
20260504190032 61 0 0.0 0.0 0.00 0.00 0.00 66 1016.1
20260504185515 61 0 0.0 0.0 0.00 0.00 0.00 65 1016.2
20260504185017 61 0 0.0 0.0 0.00 0.00 0.00 63 1016.2
20260504184535 62 0 0.0 0.0 0.00 0.00 0.00 64 1016.3
20260504184012 62 0 0.0 0.0 0.00 0.00 0.00 63 1016.3
20260504183516 61 0 0.0 0.9 0.00 0.00 0.00 64 1016.2
20260504183030 62 0 0.0 7.0 0.00 0.00 0.00 64 1016.2
20260504182515 62 0 0.0 7.8 0.00 0.00 0.00 65 1016.2
20260504182011 61 0 0.0 7.8 0.00 0.00 0.00 64 1016.1
20260504181536 61 0 0.0 3.5 0.00 0.00 0.00 65 1016.2
20260504181015 61 0 0.0 3.5 0.00 0.00 0.00 64 1016.2
20260504180513 61 0 0.0 1.7 0.00 0.00 0.00 65 1016.2
20260504180032 61 0 0.0 0.0 0.00 0.00 0.00 67 1016.1
20260504175512 61 0 0.0 0.0 0.00 0.00 0.00 67 1015.9
20260504175015 61 0 0.0 2.6 0.00 0.00 0.00 65 1015.9
20260504174530 61 0 0.0 2.6 0.00 0.00 0.00 67 1015.9
20260504174015 61 0 0.0 0.0 0.00 0.00 0.00 66 1015.7
20260504173515 61 0 0.0 0.0 0.00 0.00 0.00 66 1015.8
20260504173033 62 0 0.0 0.9 0.00 0.00 0.00 65 1015.8
20260504172514 62 0 0.0 0.9 0.00 0.00 0.00 64 1015.7